Weather History for Hazen, ND

Change the Weather History Date:

Saturday, October 6, 2012

  Actual Average (KN60) Record (KN60)
Temperature  
Mean Temperature 35 °F -  
Max Temperature 46 °F 60 °F 84 °F (2004)
Min Temperature 24 °F 34 °F 12 °F (2005)
Degree Days  
Heating Degree Days 30    
Moisture  
Dew Point 21 °F    
Average Humidity 66    
Maximum Humidity 100    
Minimum Humidity 22    
Precipitation  
Precipitation 0.04 in - - ()
Sea Level Pressure  
Sea Level Pressure 30.33 in    
Wind  
Wind Speed 7 mph (WSW)    
Max Wind Speed 14 mph    
Max Gust Speed 21 mph    
Visibility 10 miles    
Events Snow    
Averages and records for this station are not official NWS values.
T = Trace of Precipitation, MM = Missing Value Source: NWS Daily Summary

Daily Weather History Graph

Daily Weather History Graph

Search for Another Location

Airport:

Trip Planner

Search our weather history database for the weather conditions in past years. The results will help you decide how hot, cold, wet, or windy it might be!

Date:

Astronomy

Oct. 06, 2012 Rise Set
Actual Time 7:52 AM CDT 7:14 PM CDT
Civil Twilight 7:22 AM CDT 7:45 PM CDT
Nautical Twilight 6:46 AM CDT 8:20 PM CDT
Astronomical Twilight 6:10 AM CDT 8:56 PM CDT
Moon 11:14 PM CDT (10/6) 2:07 PM CDT (10/6)
Length of Visible Light 12h 23m
Length of Day
11h 22m
Waning Gibbous, 65% of the Moon is Illuminated
Oct 6
Waning Gibbous
Oct 8
Last Quarter
Oct 15
New
Oct 21
First Quarter
Oct 29
Full

Hourly Weather History & Observations

Time (CDT) Temp. Windchill Dew Point Humidity Pressure Visibility Wind Dir Wind Speed Gust Speed Precip Events Conditions
12:15 AM 32.0 °F 28.7 °F 28.4 °F 87% 30.42 in 3.0 mi NW 3.5 mph - 0.02 in Snow Light Snow
12:35 AM 32.0 °F 28.7 °F 28.4 °F 87% 30.42 in 5.0 mi WNW 3.5 mph - 0.03 in Snow Light Snow
12:55 AM 32.0 °F 28.7 °F 28.4 °F 87% 30.42 in 5.0 mi WNW 3.5 mph - 0.04 in Snow Light Snow
1:15 AM 32.0 °F 28.7 °F 28.4 °F 87% 30.42 in 8.0 mi West 3.5 mph - N/A Snow Light Snow
1:35 AM 30.2 °F 24.3 °F 28.4 °F 93% 30.41 in 9.0 mi WSW 5.8 mph - N/A Snow Light Snow
1:55 AM 30.2 °F 24.3 °F 28.4 °F 93% 30.41 in 10.0 mi WSW 5.8 mph - N/A   Overcast
2:15 AM 30.2 °F 24.3 °F 28.4 °F 93% 30.41 in 10.0 mi WSW 5.8 mph - N/A   Overcast
2:35 AM 30.2 °F 23.4 °F 28.4 °F 93% 30.41 in 10.0 mi WSW 6.9 mph - N/A   Overcast
2:55 AM 30.2 °F 23.4 °F 28.4 °F 93% 30.41 in 10.0 mi WSW 6.9 mph - N/A   Overcast
3:15 AM 30.2 °F 22.6 °F 28.4 °F 93% 30.41 in 10.0 mi WSW 8.1 mph - N/A   Overcast
3:35 AM 30.2 °F 21.9 °F 28.4 °F 93% 30.41 in 10.0 mi WSW 9.2 mph - N/A   Overcast
3:55 AM 30.2 °F 23.4 °F 28.4 °F 93% 30.40 in 10.0 mi WSW 6.9 mph - N/A   Overcast
4:35 AM 28.4 °F 20.4 °F 28.4 °F 100% 30.40 in 10.0 mi WSW 8.1 mph - N/A   Overcast
4:55 AM 28.4 °F 21.2 °F 26.6 °F 93% 30.40 in 10.0 mi WSW 6.9 mph - N/A   Overcast
5:15 AM 28.4 °F 21.2 °F 26.6 °F 93% 30.40 in 10.0 mi WSW 6.9 mph - N/A   Overcast
5:35 AM 28.4 °F 22.2 °F 26.6 °F 93% 30.40 in 10.0 mi WSW 5.8 mph - N/A   Overcast
5:55 AM 28.4 °F 21.2 °F 26.6 °F 93% 30.40 in 10.0 mi WSW 6.9 mph - N/A   Overcast
6:15 AM 26.6 °F 19.1 °F 26.6 °F 100% 30.40 in 10.0 mi WSW 6.9 mph - N/A   Overcast
6:35 AM 26.6 °F 19.1 °F 24.8 °F 93% 30.40 in 10.0 mi WSW 6.9 mph - N/A   Mostly Cloudy
6:55 AM 26.6 °F 19.1 °F 24.8 °F 93% 30.41 in 10.0 mi WSW 6.9 mph - N/A   Partly Cloudy
7:15 AM 24.8 °F 16.1 °F 24.8 °F 100% 30.41 in 10.0 mi WSW 8.1 mph - N/A   Clear
7:35 AM 24.8 °F 16.9 °F 23.0 °F 93% 30.42 in 10.0 mi WSW 6.9 mph - N/A   Clear
7:55 AM 24.8 °F 17.9 °F 23.0 °F 93% 30.42 in 10.0 mi SW 5.8 mph - N/A   Clear
8:15 AM 24.8 °F 16.9 °F 23.0 °F 93% 30.42 in 10.0 mi WSW 6.9 mph - N/A   Clear
8:35 AM 24.8 °F 16.1 °F 23.0 °F 93% 30.42 in 10.0 mi WSW 8.1 mph - N/A   Clear
8:55 AM 26.6 °F 18.2 °F 24.8 °F 93% 30.42 in 10.0 mi WSW 8.1 mph - N/A   Clear
9:15 AM 26.6 °F 17.5 °F 24.8 °F 93% 30.42 in 10.0 mi WSW 9.2 mph - N/A   Clear
9:35 AM 28.4 °F 20.4 °F 24.8 °F 86% 30.42 in 10.0 mi WSW 8.1 mph - N/A   Clear
9:55 AM 28.4 °F 19.7 °F 24.8 °F 86% 30.42 in 10.0 mi WSW 9.2 mph - N/A   Clear
10:15 AM 30.2 °F 22.6 °F 26.6 °F 86% 30.42 in 10.0 mi West 8.1 mph - N/A   Clear
10:35 AM 32.0 °F 23.6 °F 26.6 °F 80% 30.42 in 10.0 mi West 10.4 mph - N/A   Clear
10:55 AM 33.8 °F 26.4 °F 26.6 °F 75% 30.42 in 10.0 mi WSW 9.2 mph - N/A   Clear
11:15 AM 35.6 °F 29.2 °F 26.6 °F 70% 30.41 in 10.0 mi SW 8.1 mph - N/A   Clear
11:35 AM 37.4 °F 29.3 °F 21.2 °F 52% 30.40 in 10.0 mi WNW 12.7 mph - N/A   Clear
11:55 AM 37.4 °F 30.3 °F 23.0 °F 56% 30.40 in 10.0 mi West 10.4 mph - N/A   Clear
12:15 PM 39.2 °F 33.0 °F 23.0 °F 52% 30.39 in 10.0 mi West 9.2 mph - N/A   Clear
12:35 PM 39.2 °F 32.5 °F 21.2 °F 49% 30.38 in 10.0 mi West 10.4 mph - N/A   Clear
12:55 PM 41.0 °F 35.8 °F 23.0 °F 49% 30.37 in 10.0 mi WSW 8.1 mph - N/A   Clear
1:15 PM 41.0 °F 34.7 °F 21.2 °F 45% 30.36 in 10.0 mi West 10.4 mph - N/A   Clear
1:35 PM 42.8 °F 36.2 °F 19.4 °F 39% 30.34 in 10.0 mi WSW 12.7 mph 17.3 mph N/A   Clear
1:55 PM 42.8 °F 35.8 °F 17.6 °F 36% 30.33 in 10.0 mi West 13.8 mph - N/A   Clear
2:15 PM 44.6 °F 38.1 °F 15.8 °F 31% 30.32 in 10.0 mi WSW 13.8 mph - N/A   Clear
2:35 PM 44.6 °F 39.2 °F 14.0 °F 29% 30.31 in 10.0 mi West 10.4 mph 19.6 mph N/A   Clear
2:55 PM 44.6 °F 38.8 °F 12.2 °F 27% 30.30 in 10.0 mi West 11.5 mph 17.3 mph N/A   Clear
3:15 PM 44.6 °F 38.8 °F 12.2 °F 27% 30.29 in 10.0 mi West 11.5 mph 20.7 mph N/A   Clear
3:35 PM 46.4 °F 41.1 °F 10.4 °F 23% 30.28 in 10.0 mi West 11.5 mph 18.4 mph N/A   Clear
3:55 PM 46.4 °F 41.9 °F 8.6 °F 22% 30.28 in 10.0 mi WNW 9.2 mph - N/A   Clear
4:15 PM 46.4 °F 42.4 °F 8.6 °F 22% 30.26 in 10.0 mi West 8.1 mph - N/A   Clear
4:35 PM 46.4 °F 40.7 °F 8.6 °F 22% 30.25 in 10.0 mi West 12.7 mph - N/A   Clear
4:55 PM 46.4 °F 41.5 °F 8.6 °F 22% 30.24 in 10.0 mi West 10.4 mph - N/A   Clear
5:15 PM 46.4 °F 41.9 °F 10.4 °F 23% 30.24 in 10.0 mi West 9.2 mph - N/A   Clear
5:35 PM 46.4 °F 40.7 °F 10.4 °F 23% 30.23 in 10.0 mi West 12.7 mph - N/A   Clear
5:55 PM 46.4 °F 41.1 °F 14.0 °F 27% 30.22 in 10.0 mi West 11.5 mph 16.1 mph N/A   Clear
6:15 PM 44.6 °F 39.7 °F 15.8 °F 31% 30.22 in 10.0 mi West 9.2 mph - N/A   Clear
6:35 PM 44.6 °F 40.2 °F 15.8 °F 31% 30.21 in 10.0 mi West 8.1 mph - N/A   Clear
6:55 PM 41.0 °F 37.1 °F 17.6 °F 39% 30.21 in 10.0 mi West 5.8 mph - N/A   Clear
7:15 PM 41.0 °F 37.1 °F 17.6 °F 39% 30.20 in 10.0 mi WSW 5.8 mph - N/A   Clear
7:35 PM 35.6 °F 30.7 °F 17.6 °F 48% 30.20 in 10.0 mi SW 5.8 mph - N/A   Clear
7:55 PM 32.0 °F 26.4 °F 17.6 °F 55% 30.20 in 10.0 mi SSW 5.8 mph - N/A   Clear
8:15 PM 28.4 °F 21.2 °F 19.4 °F 69% 30.19 in 10.0 mi SSW 6.9 mph - N/A   Clear
8:35 PM 28.4 °F 20.4 °F 19.4 °F 69% 30.19 in 10.0 mi SSW 8.1 mph - N/A   Partly Cloudy
8:55 PM 28.4 °F 21.2 °F 19.4 °F 69% 30.18 in 10.0 mi SSW 6.9 mph - N/A   Partly Cloudy
9:15 PM 28.4 °F 22.2 °F 19.4 °F 69% 30.18 in 10.0 mi SSW 5.8 mph - N/A   Clear
9:35 PM 32.0 °F 25.6 °F 19.4 °F 60% 30.17 in 10.0 mi SSW 6.9 mph - N/A   Clear
9:55 PM 32.0 °F 24.8 °F 19.4 °F 60% 30.17 in 10.0 mi SSW 8.1 mph - N/A   Clear
10:15 PM 32.0 °F 27.5 °F 19.4 °F 60% 30.16 in 10.0 mi SSW 4.6 mph - N/A   Clear
10:35 PM 28.4 °F 24.6 °F 19.4 °F 69% 30.16 in 10.0 mi SW 3.5 mph - N/A   Partly Cloudy
11:35 PM 28.4 °F 22.2 °F 19.4 °F 69% 30.13 in 10.0 mi SW 5.8 mph - N/A   Clear
11:55 PM 30.2 °F 24.3 °F 19.4 °F 64% 30.13 in 10.0 mi SW 5.8 mph - N/A   Partly Cloudy